This demonstration page uses our WeatherBlox Daily Observations layout. Learn more.

Left ArrowRight Arrow

38.89511, -77.03637

Hourly Observations for January 8, 2016

Temp ( °F °C ) Dew Point ( °F °C ) Humidity (%) Winds ( mph kmh ) Pressure ( in mb ) Visibility ( mi km ) Precip ( " mm )
12:14 am 00:14 Cloudy with Mist and Fog 39 4 37 3 93 93 N 5 7 30.18 1022 3 5 0.00 0.00
12:52 am 00:52 Cloudy with Mist and Fog 40 4.4 38 3.3 93 93 N 6 9 30.18 1022 3 5 0.00 0.00
1:22 am 01:22 Cloudy with Mist and Fog 39 4 37 3 93 93 N 7 11 30.18 1022 3 5 0.00 0.00
1:52 am 01:52 Cloudy with Mist and Fog 40 4.4 39 3.9 97 97 N 5 7 30.17 1022 3 5 0.00 0.00
2:52 am 02:52 Cloudy with Mist and Fog 40 4.4 38 3.3 93 93 N 6 9 30.19 1023 3 5 0.00 0.00
3:00 am 03:00 Cloudy with Mist and Fog 39 4 37 3 93 93 N 7 11 30.18 1022 2 3 0.00 0.00
3:09 am 03:09 Cloudy with Mist and Fog 40 4.4 38 3.3 93 93 N 6 9 30.21 1023 2 2 0.00 0.00
3:33 am 03:33 Cloudy with Mist and Fog 40 4.4 39 3.9 97 97 N 5 7 30.21 1023 2 3 0.00 0.00
3:52 am 03:52 Cloudy with Mist and Fog 40 4.4 39 3.9 97 97 NNW 3 6 30.19 1023 2 3 0.00 0.00
4:19 am 04:19 Cloudy with Mist and Fog 40 4.4 39 3.9 97 97 Calm 30.18 1022 2 3 0.00 0.00
4:23 am 04:23 Cloudy with Mist and Fog 40 4.4 39 3.9 97 97 Calm 30.18 1022 2 3 0.00 0.00
4:39 am 04:39 Cloudy with Mist and Fog 40 4.4 39 3.9 97 97 NE 3 6 30.18 1022 3 4 0.00 0.00
4:44 am 04:44 Cloudy with Mist and Fog 39 4 37 3 93 93 NE 5 7 30.18 1022 3 5 0.00 0.00
4:52 am 04:52 Cloudy with Mist and Fog 40 4.4 38 3.3 93 93 NE 7 11 30.18 1022 4 6 0.00 0.00
5:32 am 05:32 Cloudy with Mist and Fog 39 4 37 3 93 93 NNE 5 7 30.18 1022 5 8 0.00 0.00
5:52 am 05:52 Cloudy with Mist and Fog 40 4.4 38 3.3 93 93 NNE 7 11 30.17 1022 5 8 0.00 0.00
6:04 am 06:04 Cloudy with Mist and Fog 39 4 37 3 93 93 NNE 5 7 30.18 1022 5 8 0.00 0.00
6:13 am 06:13 Cloudy with Mist and Fog 40 4.4 38 3.3 93 93 NNE 6 9 30.18 1022 5 8 0.00 0.00
6:16 am 06:16 Cloudy with Mist and Fog 39 4 37 3 93 93 NNE 5 7 30.18 1022 5 8 0.00 0.00
6:39 am 06:39 Cloudy with Mist and Fog 40 4.4 38 3.3 93 93 NE 5 7 30.18 1022 5 8 0.00 0.00
6:52 am 06:52 Cloudy with Mist and Fog 40 4.4 38 3.3 93 93 NE 5 7 30.17 1022 6 10 0.00 0.00
7:40 am 07:40 Cloudy with Mist and Fog 39 4 37 3 93 93 NE 6 9 30.18 1022 4 6 0.00 0.00
7:52 am 07:52 Cloudy with Mist and Fog 40 4.4 38 3.3 93 93 NE 6 9 30.17 1022 3 5 0.00 0.00
8:52 am 08:52 Cloudy with Mist and Fog 41 5 38 3.3 89 89 NNE 7 11 30.18 1022 4 6 0.00 0.00
9:13 am 09:13 Cloudy with Mist and Fog 41 5 38 3.3 89 89 NE 7 11 30.18 1022 3 5 0.00 0.00
9:52 am 09:52 Cloudy with Drizzle 41 5 39 3.9 93 93 NE 6 9 30.19 1023 3 4 0.00 0.03
10:05 am 10:05 Cloudy with Drizzle 41 5 39 3.9 93 93 ENE 6 9 30.18 1022 2 3 0.00 0.03
10:52 am 10:52 Cloudy with Drizzle 41 5 40 4.4 96 96 NNE 5 7 30.17 1022 1 2 0.00 0.03
11:52 am 11:52 Cloudy with Drizzle 42 5.6 41 5 96 96 NE 5 7 30.15 1021 2 3 0.00 0.03
12:52 pm 12:52 Cloudy with Drizzle 42 5.6 41 5 96 96 NE 6 9 30.13 1020 1 2 0.00 0.03
1:52 pm 13:52 Cloudy with Drizzle 43 6.1 41 5 93 93 NE 6 9 30.13 1020 2 3 0.00 0.03
2:52 pm 14:52 Cloudy with Drizzle 43 6.1 41 5 93 93 NE 6 9 30.12 1020 2 3 0.00 0.03
2:59 pm 14:59 Cloudy with Drizzle 42 5.6 41 5 96 96 ENE 6 9 30.12 1020 2 2 0.00 0.03
3:52 pm 15:52 Cloudy with Mist and Fog 42 5.6 41 5 96 96 NE 7 11 30.12 1020 2 3 0.00 0.03
4:24 pm 16:24 Cloudy with Mist and Fog 43 6 41 5 93 93 ENE 5 7 30.15 1021 2 3 0.00 0.00
4:35 pm 16:35 Cloudy with Mist and Fog 42 5.6 41 5 96 96 NE 3 6 30.15 1021 2 3 0.00 0.00
4:49 pm 16:49 Cloudy with Mist and Fog 43 6 41 5 93 93 NE 5 7 30.15 1021 2 3 0.00 0.00
4:52 pm 16:52 Cloudy with Mist and Fog 42 5.6 41 5 96 96 NE 5 7 30.14 1021 2 3 0.00 0.00
5:00 pm 17:00 Cloudy with Mist and Fog 43 6 41 5 93 93 Calm 30.15 1021 3 4 0.00 0.00
5:16 pm 17:16 Cloudy with Mist and Fog 43 6 39 4 87 87 Calm 30.15 1021 3 5 0.00 0.00
5:52 pm 17:52 Cloudy with Drizzle 43 6.1 41 5 93 93 Calm 30.16 1021 3 5 0.00 0.03
6:23 pm 18:23 Cloudy with Light Rain 42 5.6 41 5 96 96 NNE 5 7 30.15 1021 3 4 0.00 0.03
6:25 pm 18:25 Cloudy with Drizzle 42 5.6 41 5 96 96 NNE 5 7 30.15 1021 3 4 0.00 0.03
6:52 pm 18:52 Cloudy with Mist and Fog 42 5.6 40 4.4 92 92 NE 7 11 30.14 1021 3 5 0.00 0.03
7:12 pm 19:12 Cloudy with Light Rain 43 6 39 4 87 87 N 3 6 30.15 1021 4 6 0.00 0.00
7:52 pm 19:52 Cloudy with Mist and Fog 43 6.1 40 4.4 89 89 Calm 30.15 1021 4 6 0.00 0.03
8:52 pm 20:52 Cloudy with Mist and Fog 43 6.1 40 4.4 89 89 N 3 6 30.14 1021 6 10 0.00 0.00
9:52 pm 21:52 Cloudy 44 6.7 40 4.4 85 85 Calm 30.14 1021 8 13 0.00 0.00
10:52 pm 22:52 Cloudy 44 6.7 40 4.4 85 85 Calm 30.14 1021 10 16 0.00 0.03
11:52 pm 23:52 Cloudy 43 6.1 40 4.4 89 89 NNE 3 6 30.14 1021 9 14 0.00 0.00

Powered by AerisWeather